When you browse on this site, cookies collect data to enhance your experience and personalize the content and advertising you see.
Visit our Privacy Policy to learn more. By continuing to use the site, you agree to this use of cookies and data.
  • En España
  • Lista de países
  • Para 7 días
  • Temperatura del agua
  • El tiempo en el mapa
  • Informadores
  • user-avatar
    Iniciar sesión

    Tiempo cada hora Kerewan

    Hoy, 28 Febrero, Viernes

    Tiempo Temperatura Precipitaciones Viento Presión Humedad
    00:00 +26°C° 0 mm 1 mps 757 mmHg 28%
    01:00 +25°C° 0 mm 1 mps 757 mmHg 29%
    02:00 +22°C° 0 mm 0 mps 757 mmHg 31%
    03:00 +24°C° 0 mm 1 mps 757 mmHg 27%
    04:00 +24°C° 0 mm 1 mps 757 mmHg 22%
    05:00 +24°C° 0 mm 2 mps 757 mmHg 18%
    06:00 +25°C° 0 mm 2 mps 757 mmHg 15%
    07:00 +27°C° 0 mm 2 mps 758 mmHg 12%
    08:00 +28°C° 0 mm 3 mps 758 mmHg 9%
    09:00 +33°C° 0 mm 3 mps 758 mmHg 7%
    10:00 +36°C° 0 mm 4 mps 758 mmHg 6%
    11:00 +41°C° 0 mm 4 mps 757 mmHg 4%
    12:00 +42°C° 0 mm 4 mps 757 mmHg 4%
    13:00 +43°C° 0 mm 3 mps 756 mmHg 4%
    14:00 +43°C° 0 mm 2 mps 755 mmHg 3%
    15:00 +43°C° 0 mm 3 mps 755 mmHg 4%
    16:00 +43°C° 0 mm 3 mps 755 mmHg 4%
    17:00 +42°C° 0 mm 4 mps 754 mmHg 4%
    18:00 +37°C° 0 mm 4 mps 755 mmHg 10%
    19:00 +33°C° 0 mm 4 mps 756 mmHg 16%
    20:00 +28°C° 0 mm 4 mps 756 mmHg 22%
    21:00 +27°C° 0 mm 4 mps 756 mmHg 20%
    22:00 +26°C° 0 mm 3 mps 757 mmHg 19%
    23:00 +26°C° 0 mm 3 mps 757 mmHg 17%

    Mañana, 29 Febrero, Sábado

    Tiempo Temperatura Precipitaciones Viento Presión Humedad
    00:00 +25°C° 0 mm 3 mps 757 mmHg 18%
    01:00 +24°C° 0 mm 3 mps 756 mmHg 18%
    02:00 +23°C° 0 mm 4 mps 756 mmHg 18%
    03:00 +22°C° 0 mm 4 mps 756 mmHg 18%
    04:00 +22°C° 0 mm 4 mps 756 mmHg 17%
    05:00 +21°C° 0 mm 4 mps 756 mmHg 17%
    06:00 +23°C° 0 mm 4 mps 756 mmHg 15%
    07:00 +25°C° 0 mm 5 mps 757 mmHg 13%
    08:00 +27°C° 0 mm 5 mps 758 mmHg 11%
    09:00 +32°C° 0 mm 6 mps 757 mmHg 8%
    10:00 +35°C° 0 mm 6 mps 757 mmHg 6%
    11:00 +40°C° 0 mm 6 mps 757 mmHg 3%
    12:00 +42°C° 0 mm 6 mps 756 mmHg 3%
    13:00 +43°C° 0 mm 5 mps 755 mmHg 3%
    14:00 +46°C° 0 mm 5 mps 754 mmHg 3%
    15:00 +44°C° 0 mm 4 mps 754 mmHg 3%
    16:00 +44°C° 0 mm 4 mps 753 mmHg 4%
    17:00 +43°C° 0 mm 3 mps 753 mmHg 4%
    18:00 +39°C° 0 mm 3 mps 754 mmHg 8%
    19:00 +35°C° 0 mm 3 mps 754 mmHg 12%
    20:00 +30°C° 0 mm 3 mps 755 mmHg 16%
    21:00 +29°C° 0 mm 3 mps 755 mmHg 17%
    22:00 +28°C° 0 mm 3 mps 755 mmHg 17%
    23:00 +26°C° 0 mm 3 mps 756 mmHg 17%

    Pasado mañana, 1 Marzo, Domingo

    Tiempo Temperatura Precipitaciones Viento Presión Humedad
    00:00 +26°C° 0 mm 3 mps 756 mmHg 17%
    01:00 +25°C° 0 mm 3 mps 755 mmHg 18%
    02:00 +24°C° 0 mm 3 mps 755 mmHg 19%
    03:00 +22°C° 0 mm 3 mps 755 mmHg 17%
    04:00 +22°C° 0 mm 3 mps 755 mmHg 14%
    05:00 +22°C° 0 mm 3 mps 755 mmHg 12%
    06:00 +25°C° 0 mm 3 mps 755 mmHg 10%
    07:00 +26°C° 0 mm 3 mps 756 mmHg 8%
    08:00 +28°C° 0 mm 4 mps 757 mmHg 6%
    09:00 +33°C° 0 mm 5 mps 756 mmHg 5%
    10:00 +37°C° 0 mm 5 mps 756 mmHg 4%
    11:00 +42°C° 0 mm 6 mps 756 mmHg 3%
    12:00 +43°C° 0 mm 5 mps 755 mmHg 3%
    13:00 +45°C° 0 mm 5 mps 754 mmHg 3%
    14:00 +46°C° 0 mm 5 mps 753 mmHg 3%
    15:00 +45°C° 0 mm 4 mps 753 mmHg 3%
    16:00 +44°C° 0 mm 4 mps 753 mmHg 4%
    17:00 +44°C° 0 mm 3 mps 753 mmHg 4%
    18:00 +39°C° 0 mm 3 mps 753 mmHg 9%
    19:00 +35°C° 0 mm 2 mps 754 mmHg 13%
    20:00 +29°C° 0 mm 2 mps 755 mmHg 18%
    21:00 +28°C° 0 mm 2 mps 755 mmHg 24%
    22:00 +26°C° 0 mm 1 mps 755 mmHg 30%
    23:00 +25°C° 0 mm 1 mps 756 mmHg 37%

    2 Marzo, Lunes

    Tiempo Temperatura Precipitaciones Viento Presión Humedad
    00:00 +25°C° 0 mm 1 mps 755 mmHg 33%
    01:00 +25°C° 0 mm 1 mps 755 mmHg 29%
    02:00 +24°C° 0 mm 1 mps 755 mmHg 26%
    03:00 +24°C° 0 mm 1 mps 755 mmHg 25%
    04:00 +23°C° 0 mm 2 mps 755 mmHg 25%
    05:00 +23°C° 0 mm 2 mps 755 mmHg 24%
    06:00 +24°C° 0 mm 2 mps 756 mmHg 24%
    07:00 +26°C° 0 mm 2 mps 756 mmHg 24%
    08:00 +27°C° 0 mm 2 mps 757 mmHg 25%
    09:00 +31°C° 0 mm 3 mps 757 mmHg 19%
    10:00 +36°C° 0 mm 4 mps 757 mmHg 13%
    11:00 +41°C° 0 mm 5 mps 757 mmHg 8%
    12:00 +42°C° 0 mm 5 mps 756 mmHg 7%
    13:00 +44°C° 0 mm 4 mps 755 mmHg 6%
    14:00 +45°C° 0 mm 4 mps 754 mmHg 6%
    15:00 +45°C° 0 mm 3 mps 754 mmHg 6%
    16:00 +44°C° 0 mm 3 mps 754 mmHg 6%
    17:00 +43°C° 0 mm 2 mps 754 mmHg 7%
    18:00 +38°C° 0 mm 3 mps 754 mmHg 19%
    19:00 +33°C° 0 mm 4 mps 755 mmHg 31%
    20:00 +27°C° 0 mm 5 mps 756 mmHg 43%
    21:00 +26°C° 0 mm 4 mps 756 mmHg 46%
    22:00 +25°C° 0 mm 3 mps 757 mmHg 49%
    23:00 +25°C° 0 mm 3 mps 757 mmHg 52%

    3 Marzo, Martes

    Tiempo Temperatura Precipitaciones Viento Presión Humedad
    00:00 +24°C° 0 mm 2 mps 757 mmHg 50%
    01:00 +24°C° 0 mm 2 mps 756 mmHg 49%
    02:00 +23°C° 0 mm 2 mps 756 mmHg 48%
    03:00 +23°C° 0 mm 1 mps 756 mmHg 48%
    04:00 +22°C° 0 mm 1 mps 756 mmHg 48%
    05:00 +22°C° 0 mm 1 mps 756 mmHg 48%
    06:00 +24°C° 0 mm 1 mps 756 mmHg 44%
    07:00 +25°C° 0 mm 1 mps 757 mmHg 40%
    08:00 +27°C° 0 mm 2 mps 757 mmHg 36%
    09:00 +31°C° 0 mm 3 mps 757 mmHg 27%
    10:00 +36°C° 0 mm 3 mps 757 mmHg 18%
    11:00 +41°C° 0 mm 4 mps 757 mmHg 9%
    12:00 +43°C° 0 mm 4 mps 756 mmHg 8%
    13:00 +44°C° 0 mm 4 mps 755 mmHg 7%
    14:00 +45°C° 0 mm 4 mps 754 mmHg 5%
    15:00 +44°C° 0 mm 4 mps 754 mmHg 7%
    16:00 +43°C° 0 mm 4 mps 754 mmHg 9%
    17:00 +42°C° 0 mm 4 mps 754 mmHg 11%
    18:00 +36°C° 0 mm 4 mps 755 mmHg 23%
    19:00 +32°C° 0 mm 4 mps 756 mmHg 34%
    20:00 +26°C° 0 mm 4 mps 756 mmHg 46%
    21:00 +26°C° 0 mm 4 mps 756 mmHg 48%
    22:00 +25°C° 0 mm 3 mps 757 mmHg 49%
    23:00 +24°C° 0 mm 3 mps 757 mmHg 50%

    4 Marzo, Miércoles

    Tiempo Temperatura Precipitaciones Viento Presión Humedad
    00:00 +24°C° 0 mm 3 mps 757 mmHg 49%
    01:00 +24°C° 0 mm 3 mps 756 mmHg 49%
    02:00 +24°C° 0 mm 3 mps 756 mmHg 48%
    03:00 +23°C° 0 mm 2 mps 756 mmHg 44%
    04:00 +23°C° 0 mm 2 mps 756 mmHg 40%
    05:00 +22°C° 0 mm 1 mps 756 mmHg 37%
    06:00 +24°C° 0 mm 1 mps 757 mmHg 30%
    07:00 +26°C° 0 mm 1 mps 757 mmHg 24%
    08:00 +28°C° 0 mm 1 mps 758 mmHg 17%
    09:00 +32°C° 0 mm 2 mps 758 mmHg 13%
    10:00 +36°C° 0 mm 3 mps 757 mmHg 9%
    11:00 +40°C° 0 mm 3 mps 757 mmHg 6%
    12:00 +42°C° 0 mm 3 mps 757 mmHg 5%
    13:00 +44°C° 0 mm 3 mps 756 mmHg 5%
    14:00 +45°C° 0 mm 3 mps 755 mmHg 4%
    15:00 +45°C° 0 mm 3 mps 755 mmHg 5%
    16:00 +44°C° 0 mm 3 mps 754 mmHg 5%
    17:00 +44°C° 0 mm 3 mps 754 mmHg 6%
    18:00 +38°C° 0 mm 3 mps 755 mmHg 17%
    19:00 +33°C° 0 mm 3 mps 755 mmHg 28%
    20:00 +27°C° 0 mm 4 mps 756 mmHg 38%
    21:00 +26°C° 0 mm 3 mps 756 mmHg 38%
    22:00 +26°C° 0 mm 3 mps 756 mmHg 38%
    23:00 +25°C° 0 mm 2 mps 757 mmHg 38%
    Mostrar más